Showing default

SPARK 2, 41901

Orbit data source: Space-Track

SPARK 2, 41901 is a payload satellite owned by SECM (CN) in SSO that was launched on Wed, 21 Dec 2016 UTC via a CHANG ZHENG 2D launch vehicle from the Jiuquan Satellite Launch Center, China (JSC). Payload-class satellites include a variety of spacecraft equipped with specific instruments for various scientific and technological missions. These include communications satellites like Starlink; space stations such as the ISS; scientific satellites like the Hubble; Earth observation satellites from companies like Planet Labs, Umbra, and HawkEye 360; GPS; miniature CubeSats for education and research; and military/defense satellites.

Loading next visibility...
Identifier
41901, 2016-081D
Orbit
SSO
Country
Flag of CNCN / PRC
Related business
Manufacturer
SECM
Mission
Operational Civil Imaging
Bus & Motor
SPARK, Unknown motor
Mass
43 kg wet, 43 kg dry
Launch date (UTC)
2016-12-21 (9 years ago)
Launch vehicle
CHANG ZHENG 2D
Launch site
Jiuquan Satellite Launch Center, China (JSC)
Object type
Payload
Rocket body
Debris
Shape & HBR
Box + 2 Pan, 0.5 m
Radar Cross Section
0.388 m², Medium (>0.1 m² and < 1m²)

Expand to show TLE details & history
Last TLE update: 1 day ago

TLE from 1 day ago
0 SPARK 2
1 41901U 16081D   25312.44124133  .00001299  00000-0  28779-3 0  9993
2 41901  98.5286 290.9907 0024337 286.3815  73.4708 14.58756242471930
Epoch: 2025-11-08T10:35Z
TLE epoch observation values (Epoch: 2025-11-08T10:35:23.250Z)
Latitude
-0.00005°
Longitude
84.27302°
Altitude
695.305 km
Speed
7.511 km/s
True Right ascension
19h 23m 57s
True Declination
0° 00' 00"
Sunlit
Object was in daylight at epoch
Visualization orbit readout
Latitude
Unknown
Longitude
Unknown
Altitude
Unknown
Speed
Unknown
Apparent Right ascension
Unknown
Apparent Declination
Unknown
Sunlit
N/A
Visualization observer readout
Local Sidereal Time
16:19:36
Azimuth
Unknown
Elevation
Unknown
Doppler factor
Unknown
Orbital elements
Apogee altitude
711.503 km
Perigee altitude
677.079 km
Semi-major axis
7,072.428 km
Eccentricity
0.00243
Inclination
98.5286°
RAAN
290.9907°
Arg. of periapsis
286.3815°
True anomaly
73.73839°
Mean anomaly
73.4708°
Eccentric anomaly
73.60457°
Mean motion
3.64914 °/min
Orbital period
98.65 mins
BSTAR
0.00028779
Loading maneuver chart data...
Computing Atmospheric mass density...
Loading historical data...
Loading historical data...
Loading historical data...
Loading historical data...
Loading historical data...
Loading historical data...
Loading historical data...
Other satellites on launch #81 in the year 2016 (2016-12-21 UTC)

Documentation

Showing up to 5 results
|